QPF
0.00 0.00 0.00 0.00 0.00 0.00 0.00 0.00 0.00 0.00 0.00 0.00 0.00 0.00 0.00 0.00 0.00 0.00 0.00 0.00 0.00 0.00 0.00 0.00 0.00 0.00 0.00 0.00 0.00 0.00 0.00 0.00 0.00 0.00 0.01 0.01 0.01 0.02 0.02 0.03 0.02 0.03 0.03 0.03
0.00 0.00 0.00 0.00 0.00 0.00 0.00 0.00 0.00 0.00 0.00 0.00 0.00 0.00 0.00 0.00 0.00 0.00 0.00 0.00 0.00 0.00 0.00 0.00 0.00 0.00 0.00 0.00 0.00 0.00 0.00 0.00 0.01 0.01 0.01 0.01 0.02 0.03 0.03 0.04 0.04 0.04 0.05 0.05
0.00 0.00 0.00 0.00 0.00 0.00 0.00 0.00 0.00 0.00 0.00 0.00 0.00 0.00 0.00 0.00 0.00 0.00 0.00 0.00 0.00 0.00 0.00 0.00 0.00 0.00 0.00 0.00 0.00 0.01 0.01 0.01 0.01 0.02 0.03 0.03 0.03 0.04 0.05 0.06 0.07 0.07 0.07 0.07
0.00 0.00 0.00 0.00 0.00 0.00 0.00 0.00 0.00 0.00 0.00 0.00 0.00 0.00 0.00 0.00 0.00 0.00 0.00 0.00 0.00 0.00 0.00 0.00 0.00 0.00 0.00 0.00 0.01 0.01 0.01 0.02 0.02 0.04 0.05 0.05 0.07 0.07 0.09 0.09 0.09 0.08 0.09 0.10
0.00 0.00 0.00 0.00 0.00 0.00 0.00 0.00 0.00 0.00 0.00 0.00 0.00 0.00 0.00 0.00 0.00 0.00 0.00 0.00 0.00 0.00 0.00 0.00 0.00 0.00 0.00 0.01 0.01 0.01 0.02 0.03 0.04 0.05 0.06 0.07 0.08 0.09 0.11 0.12 0.10 0.09 0.09 0.10
0.00 0.00 0.00 0.00 0.00 0.00 0.00 0.00 0.00 0.00 0.00 0.00 0.00 0.00 0.00 0.00 0.00 0.00 0.00 0.00 0.00 0.00 0.00 0.00 0.00 0.00 0.01 0.01 0.01 0.02 0.03 0.03 0.05 0.07 0.08 0.09 0.09 0.10 0.12 0.14 0.13 0.11 0.10 0.09
0.00 0.00 0.00 0.00 0.00 0.00 0.00 0.00 0.00 0.00 0.00 0.00 0.00 0.00 0.00 0.00 0.00 0.00 0.00 0.00 0.00 0.00 0.00 0.00 0.00 0.01 0.01 0.01 0.02 0.02 0.03 0.04 0.05 0.08 0.09 0.09 0.10 0.10 0.11 0.12 0.13 0.12 0.11 0.10
0.00 0.00 0.00 0.00 0.00 0.00 0.00 0.00 0.00 0.00 0.00 0.00 0.00 0.00 0.00 0.00 0.00 0.00 0.00 0.00 0.00 0.00 0.00 0.00 0.00 0.01 0.02 0.02 0.02 0.02 0.03 0.04 0.06 0.08 0.08 0.08 0.10 0.10 0.12 0.12 0.12 0.11 0.11 0.10
0.00 0.00 0.00 0.00 0.00 0.00 0.00 0.00 0.00 0.00 0.00 0.00 0.00 0.00 0.00 0.00 0.00 0.00 0.00 0.00 0.00 0.00 0.00 0.00 0.01 0.01 0.02 0.02 0.02 0.03 0.03 0.05 0.07 0.08 0.09 0.10 0.10 0.10 0.11 0.11 0.11 0.10 0.10 0.09
0.00 0.00 0.00 0.00 0.00 0.00 0.00 0.00 0.00 0.00 0.00 0.00 0.00 0.00 0.00 0.00 0.00 0.00 0.00 0.00 0.00 0.00 0.00 0.00 0.01 0.01 0.02 0.02 0.03 0.03 0.04 0.06 0.06 0.07 0.08 0.09 0.11 0.11 0.11 0.11 0.11 0.10 0.10 0.10
0.00 0.00 0.00 0.00 0.00 0.00 0.00 0.00 0.00 0.00 0.00 0.00 0.00 0.00 0.00 0.00 0.00 0.00 0.00 0.00 0.00 0.00 0.00 0.01 0.01 0.01 0.02 0.03 0.03 0.04 0.04 0.05 0.05 0.06 0.08 0.08 0.09 0.10 0.08 0.09 0.08 0.08 0.10 0.12
0.00 0.00 0.00 0.00 0.00 0.00 0.00 0.00 0.00 0.00 0.00 0.00 0.00 0.00 0.00 0.00 0.00 0.00 0.00 0.00 0.00 0.00 0.00 0.01 0.01 0.01 0.02 0.03 0.04 0.04 0.05 0.05 0.05 0.05 0.07 0.07 0.08 0.09 0.07 0.05 0.03 0.02 0.03 0.05
0.00 0.00 0.00 0.00 0.00 0.00 0.00 0.00 0.00 0.00 0.00 0.00 0.00 0.00 0.00 0.00 0.00 0.00 0.00 0.00 0.00 0.00 0.00 0.01 0.01 0.01 0.03 0.04 0.04 0.04 0.05 0.05 0.04 0.05 0.07 0.06 0.07 0.08 0.10 0.08 0.04 0.02 0.02 0.02
0.00 0.00 0.00 0.00 0.00 0.00 0.00 0.00 0.00 0.00 0.00 0.00 0.00 0.00 0.00 0.00 0.00 0.00 0.00 0.00 0.00 0.00 0.00 0.01 0.01 0.01 0.03 0.03 0.03 0.03 0.04 0.04 0.04 0.06 0.07 0.06 0.06 0.07 0.08 0.08 0.07 0.03 0.02 0.02
0.00 0.00 0.00 0.00 0.00 0.00 0.00 0.00 0.00 0.00 0.00 0.00 0.00 0.00 0.00 0.00 0.00 0.00 0.00 0.00 0.00 0.00 0.00 0.01 0.02 0.02 0.02 0.02 0.03 0.03 0.04 0.03 0.04 0.06 0.06 0.06 0.06 0.05 0.05 0.05 0.05 0.03 0.03 0.03
0.00 0.00 0.00 0.00 0.00 0.00 0.00 0.00 0.00 0.00 0.00 0.00 0.00 0.00 0.00 0.00 0.00 0.00 0.00 0.00 0.00 0.00 0.00 0.01 0.02 0.01 0.02 0.02 0.03 0.03 0.03 0.03 0.03 0.04 0.05 0.05 0.05 0.05 0.04 0.04 0.04 0.04 0.04 0.03
0.00 0.00 0.00 0.00 0.00 0.00 0.00 0.00 0.00 0.00 0.00 0.00 0.00 0.00 0.00 0.00 0.00 0.00 0.00 0.00 0.00 0.00 0.00 0.01 0.01 0.01 0.02 0.02 0.03 0.04 0.03 0.03 0.02 0.03 0.04 0.04 0.04 0.05 0.04 0.03 0.04 0.05 0.04 0.03
0.00 0.00 0.00 0.00 0.00 0.00 0.00 0.00 0.00 0.00 0.00 0.00 0.00 0.00 0.00 0.00 0.00 0.00 0.00 0.00 0.00 0.00 0.00 0.00 0.01 0.01 0.01 0.02 0.02 0.03 0.03 0.03 0.03 0.03 0.03 0.02 0.03 0.04 0.04 0.03 0.03 0.03 0.03 0.03
0.00 0.00 0.00 0.00 0.00 0.00 0.00 0.00 0.00 0.00 0.00 0.00 0.00 0.00 0.00 0.00 0.00 0.00 0.00 0.00 0.00 0.00 0.00 0.00 0.02 0.01 0.01 0.01 0.02 0.02 0.03 0.02 0.03 0.03 0.02 0.02 0.03 0.04 0.03 0.03 0.03 0.03 0.03 0.04
0.00 0.00 0.00 0.00 0.00 0.00 0.00 0.00 0.00 0.00 0.00 0.00 0.00 0.00 0.00 0.00 0.00 0.00 0.00 0.00 0.00 0.00 0.00 0.00 0.01 0.01 0.00 0.01 0.01 0.02 0.02 0.02 0.03 0.02 0.02 0.02 0.03 0.03 0.03 0.03 0.03 0.03 0.04 0.04
0.00 0.00 0.00 0.00 0.00 0.00 0.00 0.00 0.00 0.00 0.00 0.00 0.00 0.00 0.00 0.00 0.00 0.00 0.00 0.00 0.00 0.00 0.00 0.00 0.01 0.01 0.00 0.01 0.01 0.02 0.02 0.02 0.02 0.02 0.02 0.02 0.02 0.02 0.03 0.03 0.03 0.04 0.05 0.06
0.00 0.00 0.00 0.00 0.00 0.00 0.00 0.00 0.00 0.00 0.00 0.00 0.00 0.00 0.00 0.00 0.00 0.00 0.00 0.00 0.00 0.00 0.00 0.00 0.00 0.01 0.01 0.01 0.01 0.02 0.01 0.01 0.02 0.02 0.02 0.01 0.01 0.02 0.02 0.03 0.03 0.04 0.04 0.04
0.00 0.00 0.00 0.00 0.00 0.00 0.00 0.00 0.00 0.00 0.00 0.00 0.00 0.00 0.00 0.00 0.00 0.00 0.00 0.00 0.00 0.00 0.00 0.00 0.00 0.01 0.01 0.00 0.01 0.01 0.01 0.01 0.01 0.01 0.01 0.01 0.01 0.01 0.02 0.03 0.03 0.03 0.02 0.02
0.00 0.00 0.00 0.00 0.00 0.00 0.00 0.00 0.00 0.00 0.00 0.00 0.00 0.00 0.00 0.00 0.00 0.00 0.00 0.00 0.00 0.00 0.00 0.00 0.01 0.01 0.01 0.00 0.00 0.01 0.01 0.01 0.01 0.01 0.01 0.01 0.01 0.01 0.02 0.02 0.02 0.01 0.01 0.01
0.00 0.00 0.01 0.01 0.01 0.01 0.01 0.01 0.01 0.00 0.00 0.00 0.00 0.00 0.00 0.00 0.00 0.00 0.00 0.00 0.00 0.00 0.00 0.00 0.01 0.01 0.01 0.00 0.00 0.00 0.00 0.01 0.00 0.01 0.01 0.01 0.01 0.01 0.01 0.01 0.01 0.01 0.01 0.01
0.01 0.01 0.01 0.01 0.01 0.01 0.01 0.01 0.01 0.01 0.00 0.00 0.00 0.00 0.00 0.00 0.00 0.00 0.00 0.00 0.00 0.00 0.00 0.00 0.00 0.00 0.01 0.00 0.00 0.00 0.00 0.00 0.00 0.00 0.01 0.01 0.01 0.01 0.01 0.01 0.00 0.00 0.00 0.00
0.01 0.01 0.01 0.01 0.02 0.02 0.02 0.02 0.02 0.02 0.01 0.01 0.00 0.00 0.00 0.00 0.00 0.00 0.00 0.00 0.00 0.00 0.00 0.00 0.00 0.00 0.01 0.01 0.01 0.01 0.01 0.01 0.00 0.00 0.00 0.00 0.01 0.01 0.01 0.01 0.00 0.00 0.00 0.00
MSLP
1012.84 1013.07 1013.29 1013.49 1013.67 1013.80 1013.88 1013.89 1013.83 1013.71 1013.54 1013.34 1013.13 1012.94 1012.78 1012.67 1012.61 1012.58 1012.57 1012.55 1012.49 1012.39 1012.23 1012.01 1011.73 1011.41 1011.05 1010.69 1010.32 1009.95 1009.60 1009.25 1008.91 1008.56 1008.20 1007.84 1007.48 1007.12 1006.78 1006.46 1006.18 1005.95 1005.76 1005.63
1013.06 1013.31 1013.52 1013.68 1013.79 1013.85 1013.84 1013.77 1013.65 1013.49 1013.31 1013.13 1012.97 1012.83 1012.73 1012.67 1012.63 1012.61 1012.59 1012.54 1012.45 1012.31 1012.12 1011.86 1011.56 1011.22 1010.86 1010.48 1010.10 1009.71 1009.33 1008.94 1008.55 1008.15 1007.75 1007.35 1006.95 1006.56 1006.19 1005.85 1005.54 1005.28 1005.05 1004.88
1013.20 1013.45 1013.65 1013.77 1013.82 1013.80 1013.73 1013.60 1013.45 1013.28 1013.12 1012.98 1012.87 1012.79 1012.74 1012.71 1012.70 1012.66 1012.61 1012.51 1012.37 1012.17 1011.92 1011.62 1011.30 1010.94 1010.57 1010.20 1009.81 1009.42 1009.01 1008.60 1008.17 1007.72 1007.27 1006.82 1006.38 1005.95 1005.56 1005.20 1004.88 1004.60 1004.37 1004.17
1013.24 1013.47 1013.62 1013.70 1013.70 1013.63 1013.51 1013.36 1013.20 1013.05 1012.93 1012.84 1012.79 1012.77 1012.77 1012.77 1012.75 1012.70 1012.59 1012.43 1012.21 1011.93 1011.62 1011.28 1010.92 1010.56 1010.19 1009.83 1009.45 1009.05 1008.64 1008.20 1007.73 1007.24 1006.74 1006.23 1005.74 1005.29 1004.87 1004.50 1004.18 1003.91 1003.69 1003.51
1013.14 1013.33 1013.43 1013.46 1013.41 1013.30 1013.16 1013.01 1012.87 1012.76 1012.69 1012.68 1012.69 1012.73 1012.77 1012.79 1012.75 1012.66 1012.49 1012.26 1011.96 1011.61 1011.24 1010.85 1010.47 1010.10 1009.74 1009.39 1009.02 1008.64 1008.22 1007.76 1007.25 1006.72 1006.16 1005.60 1005.06 1004.57 1004.13 1003.76 1003.46 1003.22 1003.04 1002.91
1012.91 1013.02 1013.06 1013.04 1012.96 1012.84 1012.70 1012.57 1012.47 1012.42 1012.42 1012.47 1012.55 1012.64 1012.71 1012.72 1012.67 1012.53 1012.30 1012.00 1011.62 1011.21 1010.79 1010.37 1009.98 1009.61 1009.27 1008.93 1008.58 1008.20 1007.78 1007.29 1006.75 1006.16 1005.55 1004.94 1004.35 1003.82 1003.37 1003.01 1002.73 1002.54 1002.42 1002.36
1012.53 1012.56 1012.55 1012.49 1012.39 1012.27 1012.16 1012.07 1012.03 1012.05 1012.12 1012.23 1012.36 1012.49 1012.57 1012.58 1012.49 1012.31 1012.03 1011.66 1011.23 1010.78 1010.32 1009.89 1009.49 1009.14 1008.81 1008.49 1008.16 1007.78 1007.34 1006.83 1006.25 1005.61 1004.94 1004.27 1003.65 1003.09 1002.63 1002.28 1002.04 1001.90 1001.85 1001.87
1012.02 1011.99 1011.93 1011.85 1011.76 1011.68 1011.62 1011.60 1011.62 1011.71 1011.84 1012.00 1012.16 1012.30 1012.37 1012.36 1012.24 1012.01 1011.69 1011.28 1010.82 1010.34 1009.88 1009.45 1009.07 1008.73 1008.42 1008.12 1007.78 1007.40 1006.93 1006.39 1005.76 1005.07 1004.35 1003.64 1002.98 1002.40 1001.94 1001.61 1001.41 1001.33 1001.35 1001.44
1011.40 1011.32 1011.25 1011.19 1011.14 1011.12 1011.13 1011.19 1011.30 1011.44 1011.62 1011.81 1011.98 1012.11 1012.15 1012.10 1011.94 1011.68 1011.31 1010.88 1010.41 1009.94 1009.49 1009.08 1008.72 1008.41 1008.11 1007.81 1007.46 1007.05 1006.56 1005.96 1005.29 1004.55 1003.78 1003.04 1002.36 1001.78 1001.34 1001.03 1000.87 1000.85 1000.92 1001.08
1010.69 1010.60 1010.56 1010.54 1010.57 1010.64 1010.75 1010.89 1011.08 1011.28 1011.49 1011.69 1011.84 1011.93 1011.93 1011.83 1011.62 1011.32 1010.94 1010.50 1010.04 1009.59 1009.17 1008.80 1008.46 1008.16 1007.87 1007.55 1007.18 1006.73 1006.18 1005.54 1004.81 1004.04 1003.24 1002.48 1001.81 1001.24 1000.82 1000.56 1000.45 1000.46 1000.58 1000.77
1009.92 1009.86 1009.87 1009.94 1010.07 1010.24 1010.46 1010.71 1010.96 1011.22 1011.44 1011.63 1011.75 1011.78 1011.72 1011.56 1011.30 1010.97 1010.57 1010.15 1009.71 1009.30 1008.92 1008.58 1008.27 1007.97 1007.67 1007.32 1006.90 1006.39 1005.79 1005.09 1004.32 1003.51 1002.71 1001.96 1001.30 1000.78 1000.41 1000.19 1000.12 1000.18 1000.32 1000.52
1009.11 1009.10 1009.19 1009.36 1009.61 1009.91 1010.24 1010.58 1010.91 1011.20 1011.43 1011.59 1011.65 1011.62 1011.50 1011.28 1010.98 1010.62 1010.22 1009.81 1009.41 1009.04 1008.70 1008.39 1008.09 1007.79 1007.45 1007.06 1006.58 1006.01 1005.34 1004.59 1003.78 1002.96 1002.17 1001.46 1000.85 1000.39 1000.08 999.93 999.90 999.99 1000.14 1000.33
1008.28 1008.35 1008.52 1008.81 1009.17 1009.59 1010.02 1010.45 1010.83 1011.15 1011.38 1011.51 1011.52 1011.43 1011.25 1010.97 1010.64 1010.26 1009.87 1009.49 1009.12 1008.79 1008.48 1008.19 1007.90 1007.58 1007.20 1006.75 1006.20 1005.55 1004.83 1004.03 1003.21 1002.40 1001.64 1000.99 1000.46 1000.08 999.85 999.76 999.78 999.89 1000.04 1000.20
1007.49 1007.62 1007.88 1008.25 1008.72 1009.23 1009.75 1010.25 1010.68 1011.02 1011.24 1011.34 1011.32 1011.18 1010.94 1010.63 1010.28 1009.90 1009.53 1009.17 1008.84 1008.54 1008.26 1007.98 1007.67 1007.32 1006.89 1006.37 1005.76 1005.05 1004.28 1003.46 1002.63 1001.85 1001.16 1000.58 1000.14 999.85 999.71 999.69 999.76 999.88 1000.01 1000.13
1006.79 1006.96 1007.27 1007.71 1008.25 1008.82 1009.41 1009.95 1010.41 1010.76 1010.98 1011.07 1011.02 1010.85 1010.59 1010.27 1009.91 1009.54 1009.19 1008.86 1008.57 1008.30 1008.03 1007.75 1007.42 1007.03 1006.55 1005.97 1005.29 1004.54 1003.73 1002.91 1002.11 1001.38 1000.75 1000.26 999.92 999.73 999.67 999.71 999.81 999.94 1000.05 1000.12
1006.24 1006.42 1006.76 1007.22 1007.78 1008.39 1008.99 1009.55 1010.03 1010.39 1010.61 1010.69 1010.64 1010.47 1010.21 1009.89 1009.55 1009.21 1008.89 1008.59 1008.33 1008.07 1007.81 1007.52 1007.17 1006.74 1006.21 1005.58 1004.86 1004.07 1003.25 1002.44 1001.68 1001.02 1000.47 1000.08 999.83 999.73 999.73 999.82 999.94 1000.06 1000.14 1000.15
1005.91 1006.07 1006.39 1006.83 1007.36 1007.96 1008.55 1009.11 1009.58 1009.95 1010.17 1010.26 1010.22 1010.07 1009.83 1009.55 1009.24 1008.93 1008.64 1008.38 1008.13 1007.89 1007.63 1007.32 1006.95 1006.48 1005.91 1005.25 1004.50 1003.71 1002.90 1002.12 1001.41 1000.81 1000.35 1000.04 999.87 999.83 999.88 1000.00 1000.12 1000.21 1000.25 1000.20
1005.83 1005.94 1006.20 1006.57 1007.05 1007.59 1008.15 1008.67 1009.13 1009.48 1009.72 1009.83 1009.82 1009.70 1009.50 1009.26 1009.00 1008.73 1008.48 1008.24 1008.02 1007.78 1007.52 1007.19 1006.79 1006.30 1005.71 1005.02 1004.27 1003.49 1002.70 1001.96 1001.31 1000.77 1000.37 1000.13 1000.01 1000.01 1000.08 1000.19 1000.29 1000.35 1000.33 1000.23
1006.00 1006.03 1006.19 1006.48 1006.87 1007.32 1007.81 1008.29 1008.71 1009.06 1009.30 1009.43 1009.45 1009.38 1009.24 1009.05 1008.84 1008.62 1008.40 1008.19 1007.98 1007.75 1007.47 1007.14 1006.72 1006.21 1005.61 1004.92 1004.18 1003.41 1002.66 1001.96 1001.36 1000.87 1000.52 1000.31 1000.22 1000.22 1000.28 1000.36 1000.42 1000.42 1000.35 1000.19
1006.34 1006.27 1006.33 1006.51 1006.79 1007.15 1007.55 1007.97 1008.35 1008.68 1008.93 1009.08 1009.14 1009.12 1009.04 1008.90 1008.74 1008.57 1008.39 1008.20 1008.00 1007.77 1007.50 1007.15 1006.72 1006.21 1005.61 1004.93 1004.20 1003.46 1002.74 1002.08 1001.51 1001.05 1000.72 1000.52 1000.42 1000.40 1000.43 1000.46 1000.46 1000.40 1000.27 1000.07
1006.73 1006.57 1006.52 1006.58 1006.75 1007.01 1007.33 1007.68 1008.02 1008.32 1008.57 1008.75 1008.85 1008.88 1008.85 1008.77 1008.66 1008.53 1008.39 1008.23 1008.05 1007.83 1007.55 1007.21 1006.78 1006.27 1005.68 1005.02 1004.32 1003.60 1002.91 1002.27 1001.72 1001.27 1000.93 1000.71 1000.58 1000.51 1000.48 1000.45 1000.39 1000.28 1000.11 999.88
1007.04 1006.80 1006.65 1006.61 1006.68 1006.84 1007.07 1007.36 1007.65 1007.94 1008.18 1008.38 1008.52 1008.59 1008.62 1008.59 1008.54 1008.46 1008.35 1008.23 1008.07 1007.86 1007.60 1007.27 1006.86 1006.37 1005.80 1005.16 1004.48 1003.79 1003.11 1002.48 1001.93 1001.47 1001.11 1000.85 1000.67 1000.54 1000.45 1000.36 1000.25 1000.10 999.89 999.65
1007.17 1006.85 1006.62 1006.49 1006.47 1006.55 1006.72 1006.94 1007.20 1007.46 1007.71 1007.93 1008.10 1008.22 1008.29 1008.32 1008.32 1008.29 1008.24 1008.15 1008.03 1007.86 1007.63 1007.33 1006.95 1006.48 1005.94 1005.33 1004.67 1004.00 1003.33 1002.71 1002.14 1001.66 1001.26 1000.95 1000.71 1000.53 1000.38 1000.24 1000.09 999.91 999.71 999.47
1007.04 1006.66 1006.36 1006.17 1006.08 1006.10 1006.21 1006.39 1006.62 1006.87 1007.12 1007.36 1007.56 1007.72 1007.85 1007.94 1008.00 1008.03 1008.03 1008.00 1007.93 1007.81 1007.63 1007.37 1007.03 1006.61 1006.10 1005.52 1004.90 1004.24 1003.58 1002.95 1002.37 1001.86 1001.42 1001.06 1000.77 1000.54 1000.35 1000.18 1000.01 999.83 999.64 999.44
1006.65 1006.22 1005.88 1005.64 1005.51 1005.49 1005.56 1005.72 1005.93 1006.17 1006.43 1006.68 1006.92 1007.13 1007.31 1007.46 1007.59 1007.69 1007.76 1007.79 1007.79 1007.73 1007.61 1007.41 1007.13 1006.75 1006.30 1005.76 1005.17 1004.54 1003.89 1003.26 1002.67 1002.13 1001.66 1001.26 1000.93 1000.67 1000.45 1000.27 1000.10 999.94 999.78 999.62
1006.05 1005.59 1005.23 1004.96 1004.81 1004.76 1004.82 1004.96 1005.17 1005.42 1005.69 1005.97 1006.24 1006.50 1006.73 1006.95 1007.14 1007.31 1007.46 1007.57 1007.64 1007.66 1007.61 1007.48 1007.26 1006.96 1006.56 1006.08 1005.53 1004.93 1004.31 1003.69 1003.09 1002.54 1002.05 1001.64 1001.29 1001.01 1000.79 1000.61 1000.46 1000.33 1000.21 1000.10
1005.35 1004.89 1004.51 1004.23 1004.07 1004.02 1004.08 1004.22 1004.43 1004.69 1004.98 1005.29 1005.60 1005.91 1006.20 1006.48 1006.75 1006.99 1007.21 1007.40 1007.55 1007.65 1007.67 1007.62 1007.48 1007.25 1006.92 1006.49 1006.00 1005.45 1004.87 1004.27 1003.70 1003.16 1002.67 1002.26 1001.91 1001.63 1001.42 1001.25 1001.12 1001.03 1000.95 1000.89
Thickness
5740 5739 5736 5730 5725 5722 5716 5710 5704 5701 5701 5705 5701 5693 5686 5681 5675 5668 5660 5653 5645 5638 5631 5625 5619 5614 5608 5603 5598 5592 5586 5581 5576 5571 5566 5561 5557 5553 5551 5549 5549 5549 5550 5552
5733 5734 5731 5724 5722 5717 5713 5710 5707 5704 5702 5707 5698 5690 5682 5675 5667 5660 5653 5645 5638 5630 5624 5618 5612 5606 5601 5595 5589 5582 5575 5570 5564 5558 5553 5547 5542 5538 5536 5534 5533 5534 5536 5539
5730 5730 5723 5717 5722 5715 5711 5712 5705 5697 5698 5700 5691 5682 5674 5667 5659 5651 5644 5637 5630 5623 5617 5611 5606 5600 5593 5587 5580 5573 5566 5559 5553 5547 5541 5534 5529 5525 5521 5519 5519 5520 5523 5526
5729 5718 5701 5720 5730 5721 5711 5710 5711 5704 5701 5695 5686 5680 5673 5667 5655 5645 5637 5630 5623 5617 5612 5607 5601 5594 5587 5580 5573 5565 5557 5550 5543 5536 5530 5524 5517 5512 5509 5507 5506 5508 5511 5516
5725 5719 5719 5720 5721 5716 5706 5704 5710 5701 5695 5690 5687 5676 5676 5664 5650 5640 5632 5625 5618 5611 5606 5600 5594 5587 5579 5572 5565 5557 5549 5540 5532 5525 5518 5513 5508 5503 5500 5497 5498 5499 5502 5506
5722 5705 5702 5716 5722 5718 5705 5698 5704 5697 5688 5683 5676 5668 5667 5659 5648 5639 5629 5621 5614 5607 5600 5594 5587 5579 5571 5565 5557 5549 5540 5531 5523 5516 5510 5505 5501 5496 5493 5490 5491 5492 5495 5499
5719 5711 5720 5724 5721 5711 5692 5692 5698 5693 5684 5676 5667 5660 5658 5653 5644 5634 5625 5617 5610 5602 5595 5588 5580 5572 5565 5558 5550 5542 5533 5525 5518 5511 5505 5501 5497 5492 5489 5487 5487 5488 5491 5494
5716 5706 5711 5722 5716 5705 5700 5701 5695 5687 5681 5673 5665 5660 5655 5647 5638 5630 5622 5614 5607 5599 5591 5583 5576 5568 5561 5552 5544 5536 5528 5520 5514 5509 5504 5501 5495 5491 5488 5486 5485 5486 5488 5492
5724 5721 5723 5726 5719 5715 5707 5698 5691 5685 5679 5670 5663 5657 5650 5642 5634 5626 5618 5611 5603 5595 5587 5580 5573 5565 5557 5549 5541 5533 5525 5519 5514 5509 5504 5500 5495 5492 5489 5487 5485 5486 5489 5492
5720 5727 5725 5722 5718 5712 5705 5696 5690 5683 5675 5667 5659 5653 5646 5638 5630 5622 5615 5607 5600 5591 5583 5577 5570 5563 5554 5547 5539 5532 5526 5520 5516 5511 5506 5502 5498 5495 5491 5489 5487 5488 5489 5492
5717 5723 5721 5719 5715 5711 5703 5695 5687 5679 5672 5663 5655 5648 5641 5633 5626 5618 5610 5604 5595 5587 5580 5574 5568 5561 5554 5548 5540 5533 5527 5522 5518 5514 5509 5505 5502 5498 5494 5490 5485 5484 5487 5490
5719 5726 5719 5716 5714 5708 5698 5689 5682 5674 5667 5660 5652 5644 5636 5629 5621 5614 5608 5601 5593 5586 5579 5573 5567 5561 5555 5549 5542 5536 5531 5527 5523 5518 5513 5510 5506 5502 5493 5487 5483 5480 5480 5482
5730 5730 5725 5718 5710 5704 5695 5687 5680 5670 5662 5654 5648 5640 5633 5625 5618 5612 5605 5599 5591 5583 5577 5571 5566 5561 5556 5550 5544 5539 5534 5530 5527 5523 5518 5514 5511 5506 5502 5493 5485 5483 5482 5484
5729 5721 5714 5710 5706 5699 5692 5684 5676 5668 5660 5652 5644 5637 5630 5622 5616 5609 5603 5596 5589 5582 5576 5570 5565 5561 5555 5551 5546 5542 5538 5535 5530 5527 5523 5519 5515 5511 5507 5504 5501 5497 5489 5486
5723 5718 5714 5709 5702 5694 5686 5678 5670 5664 5656 5648 5641 5634 5626 5619 5612 5606 5601 5595 5588 5581 5576 5569 5564 5560 5556 5552 5549 5546 5543 5539 5535 5532 5529 5524 5521 5517 5513 5510 5506 5503 5501 5495
5721 5715 5709 5701 5694 5688 5680 5673 5666 5659 5652 5644 5637 5630 5623 5617 5611 5605 5599 5593 5586 5580 5574 5568 5563 5559 5556 5554 5552 5550 5547 5541 5537 5537 5534 5530 5526 5522 5519 5516 5513 5511 5509 5506
5713 5706 5701 5695 5690 5684 5677 5670 5663 5655 5648 5640 5633 5626 5620 5615 5609 5603 5597 5591 5584 5578 5574 5567 5562 5558 5557 5557 5555 5554 5551 5548 5542 5542 5539 5534 5530 5527 5524 5521 5519 5517 5515 5510
5713 5709 5704 5697 5690 5681 5673 5666 5658 5651 5642 5636 5629 5623 5617 5611 5606 5600 5594 5589 5583 5579 5574 5566 5560 5559 5559 5559 5558 5557 5556 5553 5550 5547 5543 5539 5535 5532 5529 5527 5525 5522 5521 5518
5706 5702 5697 5690 5684 5676 5668 5660 5653 5646 5638 5631 5624 5618 5613 5608 5603 5597 5592 5587 5583 5579 5571 5565 5559 5560 5561 5561 5558 5560 5560 5558 5555 5551 5547 5540 5540 5537 5534 5532 5529 5527 5526 5525
5694 5691 5687 5681 5674 5668 5661 5654 5647 5640 5633 5626 5619 5614 5609 5604 5599 5594 5589 5585 5581 5572 5565 5561 5560 5561 5560 5561 5558 5563 5563 5561 5558 5555 5552 5549 5545 5542 5539 5537 5535 5534 5532 5532
5681 5679 5674 5670 5665 5660 5655 5648 5640 5633 5627 5621 5614 5609 5604 5600 5596 5591 5587 5585 5577 5567 5562 5560 5560 5558 5558 5556 5559 5565 5565 5563 5562 5560 5557 5554 5551 5547 5545 5543 5542 5541 5539 5539
5667 5666 5664 5661 5656 5650 5646 5640 5634 5628 5622 5616 5611 5606 5601 5597 5594 5589 5585 5579 5572 5562 5559 5561 5558 5553 5552 5555 5564 5566 5565 5565 5565 5563 5562 5560 5557 5554 5552 5550 5550 5549 5549 5549
5652 5652 5651 5649 5647 5643 5639 5633 5628 5622 5617 5612 5607 5601 5597 5592 5589 5586 5582 5576 5568 5558 5557 5558 5550 5548 5549 5560 5563 5564 5564 5564 5565 5566 5565 5564 5563 5560 5559 5558 5558 5558 5558 5558
5637 5638 5638 5638 5637 5634 5630 5627 5622 5617 5612 5607 5603 5597 5592 5589 5587 5585 5578 5570 5562 5555 5557 5553 5547 5547 5549 5557 5559 5561 5563 5563 5565 5567 5568 5568 5568 5567 5565 5564 5565 5566 5566 5566
5623 5625 5626 5626 5625 5625 5623 5618 5614 5610 5606 5603 5600 5594 5590 5586 5581 5578 5572 5567 5560 5554 5556 5553 5547 5545 5550 5551 5552 5555 5557 5558 5560 5563 5566 5567 5569 5570 5569 5569 5569 5570 5571 5572
5610 5612 5616 5615 5616 5618 5618 5614 5610 5606 5603 5600 5596 5592 5588 5582 5577 5573 5569 5565 5560 5553 5552 5550 5548 5545 5545 5545 5546 5548 5551 5554 5558 5562 5564 5566 5568 5569 5570 5571 5572 5573 5574 5574
5600 5604 5606 5608 5611 5610 5610 5608 5604 5602 5599 5596 5593 5588 5583 5578 5574 5569 5564 5560 5556 5552 5548 5545 5543 5540 5540 5539 5540 5541 5544 5548 5551 5555 5559 5562 5564 5566 5567 5569 5572 5573 5574 5576